Tracking 19903 objects as of 16-Oct-2019
HD Live streaming from Space Station
objects crossing your sky now

FENGYUN 1C DEB

Track FENGYUN 1C DEB now!
10-day predictions


NORAD ID: 32355
Int'l Code: 1999-025CYY
Perigee: 702.1 km
Apogee: 899.5 km
Inclination: 100.4 °
Period: 100.7 minutes
Semi major axis: 7171 km
RCS: 0.0091 m2 (small)
Launch date: May 10, 1999
Source: People's Republic of China (PRC)
Launch site: Taiyaun Space Center, China (TSC)

Note: This is SATELLITE DEBRIS
aabbcc
Your satellite tracking list
Your tracking list is empty




NASA's NSSDC Master Catalog

Two Line Element Set (TLE):
1 32355U 99025CYY 19287.16327639  .00001144  00000-0  42695-3 0  9996
2 32355 100.3795  42.0739 0137595 348.1881 131.2688 14.29426090641347
Source of the keplerian elements: AFSPC